Back to catalog

THORAD DELTA 1 DEB

AliveLEO
NORAD 9695·DEBRIS·🇺🇸 United States

Launched Nov 15, 1974 from Vandenberg Space Force Base

Loading…

Next Passes (next 24 hours)

TLE

FreshSource: Space-Track

Epoch: Sep 14, 2026, 07:42 UTC

1 09695U 74089DU  26257.32108186  .00000537  00000-0  70631-3 0  9993
2 09695 103.0118 301.9964 0279831 105.0156 258.2115 13.53052172452391

Track THORAD DELTA 1 DEB in real time with AllMySat

Download on the App Store